Regional Weather Roundup
Issued by NWS

Home | Current Version | Previous Version | Graphics & Text | Print | Product List | Glossary On
Versions: 1 2 3 4 5 6 7 8 9 10 11 12 13 14 15 16 17 18 19 20 21 22 23 24 25 26 27 28 29 30 31 32 33 34 35 36 37 38 39 40 41 42 43 44 45 46 47 48 49 50
553
ASUS43 KTOP 282359
RWRKS

WEATHER ROUNDUP FOR KANSAS
NATIONAL WEATHER SERVICE GOODLAND KS
700 PM CDT WED JUN 28 2017

NOTE:  "FAIR" INDICATES FEW OR NO CLOUDS BELOW 12,000 FEET WITH NO
SIGNIFICANT WEATHER AND/OR OBSTRUCTIONS TO VISIBILITY.

KSZ001>006-013>018-027>032-041>047-290100-
NORTHWEST KANSAS

CITY           SKY/WX    TMP DP  RH WIND       PRES   REMARKS
GOODLAND       SUNNY     87  52  29 SE10      29.78S
6HR MIN TEMP:  84; 6HR MAX TEMP:  90;

HAYS           MOSUNNY   94  68  42 SE13      29.66F HX  98
HILL CITY      SUNNY     93  61  34 E7        29.69F
6HR MIN TEMP:  86; 6HR MAX TEMP:  94;

RUSSELL        MOSUNNY   96  65  35 S18       29.65F HX  98
6HR MIN TEMP:  88; 6HR MAX TEMP:  96;

$$

KSZ061>065-074>080-084>089-290100-
SOUTHWEST KANSAS

CITY           SKY/WX    TMP DP  RH WIND       PRES   REMARKS
DODGE CITY     SUNNY     95  60  31 S17       29.68F HX  95
6HR MIN TEMP:  89; 6HR MAX TEMP:  96;

ELKHART          N/A     92  56  29 SE8         N/A
GARDEN CITY    SUNNY     94  55  26 S6        29.70F
6HR MIN TEMP:  88; 6HR MAX TEMP:  96;

GREAT BEND     SUNNY     94  65  38 S24G30    29.67F HX  96
LIBERAL        SUNNY     96  59  29 SW12      29.71S HX  95
$$

KSZ066>073-081>083-090>101-290100-
SOUTHEAST KANSAS

CITY           SKY/WX    TMP DP  RH WIND       PRES   REMARKS
CHANUTE        SUNNY     87  67  51 S23G32    29.78F
6HR MIN TEMP:  86; 6HR MAX TEMP:  91;

COFFEYVILLE    SUNNY     87  68  52 S21G30    29.79S
6HR MIN TEMP:  87; 6HR MAX TEMP:  91;

HUTCHINSON     SUNNY     94  61  33 S23G29    29.70S
6HR MIN TEMP:  92; 6HR MAX TEMP:  98;

MEDICINE LODGE   N/A     94  60  32 S18       29.69S
NEWTON         SUNNY     90  65  43 S23G29    29.73S
PARSONS        MOSUNNY   87  68  52 S15G24    29.80S
6HR MIN TEMP:  85; 6HR MAX TEMP:  90;

WICHITA INTL   MOSUNNY   91  65  41 S20G31    29.72S
6HR MIN TEMP:  89; 6HR MAX TEMP:  94;

WICHITA JABRA  SUNNY     88  66  48 S18G24    29.74R
6HR MIN TEMP:  87; 6HR MAX TEMP:  91;

WINFIELD       SUNNY     88  66  48 S20G26    29.76S
6HR MIN TEMP:  88; 6HR MAX TEMP:  91;

$$

KSZ007>012-019>026-033>040-048>060-102>105-290100-
NORTHEAST KANSAS

CITY           SKY/WX    TMP DP  RH WIND       PRES   REMARKS
CONCORDIA      SUNNY     93  67  42 SW12      29.67S HX  96
6HR MIN TEMP:  89; 6HR MAX TEMP:  95;

EMPORIA        SUNNY     87  69  54 S23G33    29.75F
6HR MIN TEMP:  87; 6HR MAX TEMP:  90;

LAWRENCE       SUNNY     88  70  55 S15G25    29.72R
6HR MIN TEMP:  87; 6HR MAX TEMP:  91;

MANHATTAN      SUNNY     92  68  45 S15G31    29.66F HX  96
6HR MIN TEMP:  92; 6HR MAX TEMP:  96;

OLATHE IND     PTSUNNY   86  68  54 S16G28    29.76R
6HR MIN TEMP:  86; 6HR MAX TEMP:  90;

OLATHE EXE     MOSUNNY   84  70  62 S15G26    29.77R
6HR MIN TEMP:  83; 6HR MAX TEMP:  87;

SALINA         MOSUNNY   95  62  33 S15G29    29.66F HX  96
6HR MIN TEMP:  94; 6HR MAX TEMP: 101;

TOPEKA BILLARD SUNNY     89  70  53 S21G29    29.69F
6HR MIN TEMP:  87; 6HR MAX TEMP:  92;

TOPEKA FORBES  SUNNY     89  70  53 S21G30    29.71F
6HR MIN TEMP:  88; 6HR MAX TEMP:  93;

$$




USA.gov is the U.S. government's official web portal to all federal, state and local government web resources and services.